| time (UTC) | temp F | wind direction | speed MPH | gust MPH | rain 1hr in | rain 24hr in | rain mn in | humidity % | barometer mb |
| 20260510181219 | 90 | 227 | 2.0 | 4.0 | 0.00 | 0.00 | 0.00 | 63 | 1014.3 |
| 20260510180714 | 89 | 178 | 2.0 | 4.0 | 0.00 | 0.00 | 0.00 | 65 | 1014.0 |
| 20260510180212 | 89 | 345 | 4.0 | 6.0 | 0.00 | 0.00 | 0.00 | 63 | 1014.1 |
| 20260510175708 | 89 | 94 | 3.0 | 4.0 | 0.00 | 0.00 | 0.00 | 65 | 1014.2 |
| 20260510175203 | 89 | 189 | 2.0 | 3.0 | 0.00 | 0.00 | 0.00 | 65 | 1014.4 |
| 20260510174701 | 88 | 184 | 5.0 | 7.0 | 0.00 | 0.00 | 0.00 | 66 | 1014.2 |
| 20260510174158 | 89 | 249 | 2.0 | 3.0 | 0.00 | 0.00 | 0.00 | 69 | 1014.4 |
| 20260510173654 | 89 | 234 | 2.0 | 3.0 | 0.00 | 0.00 | 0.00 | 66 | 1014.4 |
| 20260510173151 | 88 | 227 | 1.0 | 3.0 | 0.00 | 0.00 | 0.00 | 68 | 1014.6 |
| 20260510172646 | 88 | 222 | 0.0 | 3.0 | 0.00 | 0.00 | 0.00 | 70 | 1014.6 |
| 20260510172142 | 87 | 225 | 1.0 | 3.0 | 0.00 | 0.00 | 0.00 | 69 | 1014.8 |
| 20260510171639 | 88 | 156 | 5.0 | 6.0 | 0.00 | 0.00 | 0.00 | 67 | 1014.8 |
| 20260510171137 | 88 | 216 | 1.0 | 2.0 | 0.00 | 0.00 | 0.00 | 67 | 1015.0 |
| 20260510170633 | 87 | 209 | 2.0 | 3.0 | 0.00 | 0.00 | 0.00 | 70 | 1014.9 |
| 20260510170129 | 86 | 197 | 3.0 | 4.0 | 0.00 | 0.00 | 0.00 | 71 | 1014.8 |
| 20260510165625 | 87 | 205 | 2.0 | 4.0 | 0.00 | 0.00 | 0.00 | 70 | 1015.1 |
| 20260510165121 | 87 | 235 | 1.0 | 4.0 | 0.00 | 0.00 | 0.00 | 71 | 1015.2 |
| 20260510164619 | 87 | 184 | 2.0 | 4.0 | 0.00 | 0.00 | 0.00 | 71 | 1015.1 |
| 20260510164115 | 87 | 189 | 0.0 | 7.0 | 0.00 | 0.00 | 0.00 | 69 | 1015.1 |
| 20260510163611 | 86 | 288 | 3.0 | 4.0 | 0.00 | 0.00 | 0.00 | 72 | 1015.2 |
| 20260510163108 | 86 | 198 | 2.0 | 4.0 | 0.00 | 0.00 | 0.00 | 72 | 1015.0 |
| 20260510162602 | 86 | 46 | 2.0 | 3.0 | 0.00 | 0.00 | 0.00 | 72 | 1015.2 |
| 20260510162059 | 86 | 188 | 1.0 | 4.0 | 0.00 | 0.00 | 0.00 | 70 | 1015.4 |
| 20260510161554 | 86 | 140 | 4.0 | 4.0 | 0.00 | 0.00 | 0.00 | 72 | 1015.4 |
| 20260510161052 | 85 | 238 | 1.0 | 3.0 | 0.00 | 0.00 | 0.00 | 72 | 1015.4 |
| 20260510160549 | 86 | 248 | 1.0 | 2.0 | 0.00 | 0.00 | 0.00 | 72 | 1015.4 |
| 20260510160048 | 86 | 172 | 0.0 | 2.0 | 0.00 | 0.00 | 0.00 | 72 | 1015.7 |
| 20260510155545 | 86 | 330 | 1.0 | 4.0 | 0.00 | 0.00 | 0.00 | 73 | 1015.8 |
| 20260510155041 | 84 | 201 | 1.0 | 2.0 | 0.00 | 0.00 | 0.00 | 73 | 1015.7 |
| 20260510154537 | 84 | 81 | 4.0 | 6.0 | 0.00 | 0.00 | 0.00 | 72 | 1015.6 |
| 20260510154032 | 85 | 241 | 2.0 | 7.0 | 0.00 | 0.00 | 0.00 | 73 | 1015.7 |
| 20260510153527 | 84 | 181 | 1.0 | 4.0 | 0.00 | 0.00 | 0.00 | 72 | 1015.8 |
| 20260510153025 | 84 | 20 | 2.0 | 4.0 | 0.00 | 0.00 | 0.00 | 74 | 1015.5 |
| 20260510152522 | 84 | 255 | 2.0 | 6.0 | 0.00 | 0.00 | 0.00 | 75 | 1015.8 |
| 20260510152018 | 83 | 196 | 0.0 | 4.0 | 0.00 | 0.00 | 0.00 | 76 | 1015.9 |
| 20260510151515 | 82 | 177 | 2.0 | 2.0 | 0.00 | 0.00 | 0.00 | 77 | 1015.9 |
| 20260510151012 | 82 | 41 | 3.0 | 4.0 | 0.00 | 0.00 | 0.00 | 78 | 1015.8 |
| 20260510150507 | 82 | 257 | 1.0 | 3.0 | 0.00 | 0.00 | 0.00 | 79 | 1015.9 |
| 20260510150003 | 82 | 256 | 2.0 | 7.0 | 0.00 | 0.00 | 0.00 | 78 | 1015.9 |
| 20260510145500 | 81 | 242 | 2.0 | 4.0 | 0.00 | 0.00 | 0.00 | 80 | 1015.9 |
| 20260510144956 | 82 | 208 | 1.0 | 2.0 | 0.00 | 0.00 | 0.00 | 79 | 1015.9 |
| 20260510144453 | 81 | 222 | 0.0 | 7.0 | 0.00 | 0.00 | 0.00 | 81 | 1016.0 |
| 20260510143949 | 81 | 222 | 2.0 | 4.0 | 0.00 | 0.00 | 0.00 | 81 | 1016.0 |
| 20260510143445 | 81 | 237 | 1.0 | 3.0 | 0.00 | 0.00 | 0.00 | 80 | 1016.1 |
| 20260510142942 | 81 | 169 | 1.0 | 2.0 | 0.00 | 0.00 | 0.00 | 82 | 1016.0 |
| 20260510142438 | 80 | 118 | 3.0 | 4.0 | 0.00 | 0.00 | 0.00 | 84 | 1016.1 |
| 20260510141935 | 79 | 356 | 3.0 | 4.0 | 0.00 | 0.00 | 0.00 | 87 | 1016.1 |
| 20260510141432 | 78 | 334 | 4.0 | 6.0 | 0.00 | 0.00 | 0.00 | 87 | 1015.8 |
| 20260510140929 | 78 | 211 | 0.0 | 2.0 | 0.00 | 0.00 | 0.00 | 88 | 1016.1 |
| 20260510140426 | 78 | 193 | 4.0 | 6.0 | 0.00 | 0.00 | 0.00 | 88 | 1016.0 |
| 20260510135924 | 77 | 358 | 2.0 | 6.0 | 0.00 | 0.00 | 0.00 | 90 | 1015.9 |
| 20260510135421 | 77 | 205 | 1.0 | 8.0 | 0.00 | 0.00 | 0.00 | 91 | 1015.9 |
| 20260510134918 | 76 | 220 | 2.0 | 4.0 | 0.00 | 0.00 | 0.00 | 93 | 1016.1 |
| 20260510134415 | 75 | 209 | 1.0 | 6.0 | 0.00 | 0.00 | 0.00 | 94 | 1016.1 |
| 20260510133911 | 75 | 167 | 1.0 | 6.0 | 0.00 | 0.00 | 0.00 | 94 | 1015.9 |
| 20260510133407 | 75 | 210 | 1.0 | 6.0 | 0.00 | 0.00 | 0.00 | 95 | 1016.0 |
| 20260510132902 | 75 | 242 | 1.0 | 3.0 | 0.00 | 0.00 | 0.00 | 95 | 1016.0 |
| 20260510132401 | 74 | 202 | 0.0 | 2.0 | 0.00 | 0.00 | 0.00 | 96 | 1015.7 |
| 20260510131857 | 74 | 245 | 2.0 | 3.0 | 0.00 | 0.00 | 0.00 | 96 | 1015.5 |
| 20260510131355 | 74 | 282 | 0.0 | 3.0 | 0.00 | 0.00 | 0.00 | 96 | 1015.3 |
| 20260510130851 | 74 | 212 | 0.0 | 1.0 | 0.00 | 0.00 | 0.00 | 97 | 1015.3 |
| 20260510130349 | 73 | 218 | 0.0 | 2.0 | 0.00 | 0.00 | 0.00 | 97 | 1015.1 |
| 20260510125845 | 73 | 227 | 0.0 | 0.0 | 0.00 | 0.00 | 0.00 | 97 | 1015.0 |
| 20260510125341 | 73 | 206 | 0.0 | 2.0 | 0.00 | 0.00 | 0.00 | 97 | 1014.9 |
| 20260510124838 | 73 | 189 | 0.0 | 1.0 | 0.00 | 0.00 | 0.00 | 98 | 1014.8 |
| 20260510124330 | 73 | 221 | 0.0 | 0.0 | 0.00 | 0.00 | 0.00 | 98 | 1014.7 |
| 20260510123826 | 73 | 211 | 0.0 | 2.0 | 0.00 | 0.00 | 0.00 | 98 | 1014.7 |
| 20260510123321 | 72 | 206 | 0.0 | 1.0 | 0.00 | 0.00 | 0.00 | 98 | 1014.7 |
| 20260510122817 | 72 | 236 | 0.0 | 0.0 | 0.00 | 0.00 | 0.00 | 98 | 1014.4 |
| 20260510122314 | 72 | 235 | 0.0 | 0.0 | 0.00 | 0.00 | 0.00 | 99 | 1014.4 |
| 20260510121810 | 72 | 269 | 1.0 | 1.0 | 0.00 | 0.00 | 0.00 | 99 | 1014.5 |
| 20260510121309 | 72 | 257 | 0.0 | 1.0 | 0.00 | 0.00 | 0.00 | 99 | 1014.4 |
| 20260510120805 | 72 | 224 | 0.0 | 0.0 | 0.00 | 0.00 | 0.00 | 99 | 1014.2 |
| 20260510120302 | 72 | 236 | 1.0 | 2.0 | 0.00 | 0.00 | 0.00 | 99 | 1014.1 |
| 20260510115757 | 72 | 282 | 1.0 | 2.0 | 0.00 | 0.00 | 0.00 | 99 | 1014.2 |
| 20260510115255 | 72 | 230 | 2.0 | 2.0 | 0.00 | 0.00 | 0.00 | 99 | 1014.0 |
| 20260510114750 | 72 | 228 | 0.0 | 0.0 | 0.00 | 0.00 | 0.00 | 99 | 1013.7 |
| 20260510114248 | 72 | 228 | 0.0 | 0.0 | 0.00 | 0.00 | 0.00 | 99 | 1013.7 |
| 20260510113747 | 72 | 228 | 0.0 | 0.0 | 0.00 | 0.00 | 0.00 | 99 | 1013.7 |
| 20260510113245 | 72 | 213 | 0.0 | 0.0 | 0.00 | 0.00 | 0.00 | 99 | 1013.5 |
| 20260510112741 | 72 | 213 | 0.0 | 0.0 | 0.00 | 0.00 | 0.00 | 99 | 1013.4 |
| 20260510112238 | 72 | 212 | 0.0 | 0.0 | 0.00 | 0.00 | 0.00 | 99 | 1013.3 |
| 20260510111734 | 72 | 201 | 0.0 | 0.0 | 0.00 | 0.00 | 0.00 | 99 | 1013.0 |
| 20260510111231 | 72 | 202 | 0.0 | 0.0 | 0.00 | 0.00 | 0.00 | 99 | 1012.7 |
| 20260510110730 | 72 | 202 | 0.0 | 0.0 | 0.00 | 0.00 | 0.00 | 99 | 1012.8 |
| 20260510110229 | 72 | 202 | 0.0 | 0.0 | 0.00 | 0.00 | 0.00 | 99 | 1012.6 |
| 20260510105728 | 72 | 190 | 2.0 | 3.0 | 0.00 | 0.00 | 0.00 | 99 | 1012.6 |
| 20260510105223 | 72 | 201 | 0.0 | 1.0 | 0.00 | 0.00 | 0.00 | 99 | 1012.6 |
| 20260510104720 | 72 | 202 | 0.0 | 0.0 | 0.00 | 0.00 | 0.00 | 99 | 1012.4 |
| 20260510104218 | 72 | 201 | 0.0 | 0.0 | 0.00 | 0.00 | 0.00 | 99 | 1012.3 |
| 20260510103714 | 72 | 202 | 0.0 | 0.0 | 0.00 | 0.00 | 0.00 | 99 | 1012.3 |
| 20260510103211 | 72 | 226 | 0.0 | 0.0 | 0.00 | 0.00 | 0.00 | 99 | 1012.2 |
| 20260510102711 | 72 | 224 | 1.0 | 2.0 | 0.00 | 0.00 | 0.00 | 99 | 1012.2 |
| 20260510102207 | 71 | 210 | 0.0 | 0.0 | 0.00 | 0.00 | 0.00 | 99 | 1012.2 |
| 20260510101704 | 71 | 202 | 0.0 | 2.0 | 0.00 | 0.00 | 0.00 | 99 | 1012.1 |
| 20260510101203 | 71 | 201 | 1.0 | 2.0 | 0.00 | 0.00 | 0.00 | 99 | 1012.1 |
| 20260510100658 | 71 | 225 | 0.0 | 2.0 | 0.00 | 0.00 | 0.00 | 99 | 1012.2 |
| 20260510100156 | 71 | 224 | 2.0 | 3.0 | 0.00 | 0.00 | 0.00 | 99 | 1012.1 |
| 20260510095651 | 69 | 203 | 0.0 | 1.0 | 0.00 | 0.00 | 0.00 | 99 | 1012.2 |
| 20260510095146 | 68 | 185 | 0.0 | 0.0 | 0.00 | 0.00 | 0.00 | 99 | 1012.2 |
| 20260510094645 | 67 | 185 | 0.0 | 0.0 | 0.00 | 0.00 | 0.00 | 99 | 1012.3 |
| 20260510094141 | 67 | 185 | 0.0 | 0.0 | 0.00 | 0.00 | 0.00 | 99 | 1012.0 |
| 20260510093637 | 67 | 185 | 0.0 | 0.0 | 0.00 | 0.00 | 0.00 | 99 | 1011.9 |
| 20260510093136 | 67 | 185 | 0.0 | 0.0 | 0.00 | 0.00 | 0.00 | 99 | 1011.9 |
| 20260510092632 | 67 | 185 | 0.0 | 0.0 | 0.00 | 0.00 | 0.00 | 99 | 1011.7 |
| 20260510092127 | 67 | 185 | 0.0 | 0.0 | 0.00 | 0.00 | 0.00 | 99 | 1011.7 |
| 20260510091623 | 67 | 185 | 0.0 | 0.0 | 0.00 | 0.00 | 0.00 | 99 | 1011.7 |
| 20260510091119 | 67 | 185 | 0.0 | 0.0 | 0.00 | 0.00 | 0.00 | 99 | 1011.7 |
| 20260510090616 | 67 | 185 | 0.0 | 0.0 | 0.00 | 0.00 | 0.00 | 99 | 1011.7 |
| 20260510090112 | 67 | 185 | 0.0 | 0.0 | 0.00 | 0.00 | 0.00 | 99 | 1011.8 |
| 20260510085607 | 67 | 185 | 0.0 | 0.0 | 0.00 | 0.00 | 0.00 | 99 | 1011.8 |
| 20260510085103 | 68 | 185 | 0.0 | 0.0 | 0.00 | 0.00 | 0.00 | 99 | 1011.7 |
| 20260510084600 | 68 | 185 | 0.0 | 0.0 | 0.00 | 0.00 | 0.00 | 99 | 1011.8 |
| 20260510084056 | 68 | 185 | 0.0 | 0.0 | 0.00 | 0.00 | 0.00 | 99 | 1011.5 |
| 20260510083553 | 68 | 185 | 0.0 | 0.0 | 0.00 | 0.00 | 0.00 | 99 | 1011.7 |
| 20260510083049 | 68 | 185 | 0.0 | 0.0 | 0.00 | 0.00 | 0.00 | 99 | 1011.9 |
| 20260510082546 | 68 | 185 | 0.0 | 0.0 | 0.00 | 0.00 | 0.00 | 98 | 1011.8 |
| 20260510082042 | 68 | 185 | 0.0 | 0.0 | 0.00 | 0.00 | 0.00 | 98 | 1012.0 |
| 20260510081537 | 68 | 185 | 0.0 | 0.0 | 0.00 | 0.00 | 0.00 | 98 | 1011.9 |
| 20260510081033 | 68 | 185 | 0.0 | 0.0 | 0.00 | 0.00 | 0.00 | 98 | 1012.0 |
| 20260510080532 | 68 | 185 | 0.0 | 0.0 | 0.00 | 0.00 | 0.00 | 98 | 1011.8 |
| 20260510080029 | 69 | 185 | 0.0 | 0.0 | 0.00 | 0.00 | 0.00 | 98 | 1011.9 |
| 20260510075526 | 69 | 185 | 0.0 | 0.0 | 0.00 | 0.00 | 0.00 | 98 | 1011.9 |
| 20260510075023 | 69 | 185 | 0.0 | 0.0 | 0.00 | 0.00 | 0.00 | 98 | 1011.7 |
| 20260510074521 | 69 | 185 | 0.0 | 0.0 | 0.00 | 0.00 | 0.00 | 98 | 1011.9 |
| 20260510074016 | 69 | 185 | 0.0 | 0.0 | 0.00 | 0.00 | 0.00 | 98 | 1011.8 |
| 20260510073512 | 70 | 185 | 0.0 | 0.0 | 0.00 | 0.00 | 0.00 | 98 | 1011.9 |
| 20260510073009 | 70 | 185 | 0.0 | 0.0 | 0.00 | 0.00 | 0.00 | 98 | 1011.9 |
| 20260510072506 | 69 | 185 | 0.0 | 0.0 | 0.00 | 0.00 | 0.00 | 98 | 1011.8 |
| 20260510072001 | 69 | 185 | 0.0 | 0.0 | 0.00 | 0.00 | 0.00 | 97 | 1012.0 |
| 20260510071458 | 70 | 185 | 0.0 | 0.0 | 0.00 | 0.00 | 0.00 | 97 | 1011.8 |
| 20260510070956 | 70 | 185 | 0.0 | 0.0 | 0.00 | 0.00 | 0.00 | 97 | 1011.8 |
| 20260510070453 | 70 | 185 | 0.0 | 0.0 | 0.00 | 0.00 | 0.00 | 97 | 1012.1 |
| 20260510065949 | 70 | 185 | 0.0 | 0.0 | 0.00 | 0.00 | 0.00 | 97 | 1011.9 |
| 20260510065446 | 70 | 185 | 0.0 | 0.0 | 0.00 | 0.00 | 0.00 | 97 | 1012.2 |
| 20260510064942 | 70 | 185 | 0.0 | 0.0 | 0.00 | 0.00 | 0.00 | 97 | 1012.1 |
| 20260510064439 | 70 | 185 | 0.0 | 0.0 | 0.00 | 0.00 | 0.00 | 97 | 1012.2 |
| 20260510063936 | 70 | 184 | 0.0 | 0.0 | 0.00 | 0.00 | 0.00 | 96 | 1012.3 |
| 20260510063432 | 71 | 184 | 0.0 | 1.0 | 0.00 | 0.00 | 0.00 | 96 | 1012.4 |
| 20260510062930 | 71 | 185 | 0.0 | 0.0 | 0.00 | 0.00 | 0.00 | 96 | 1012.3 |
| 20260510062430 | 71 | 185 | 0.0 | 0.0 | 0.00 | 0.00 | 0.00 | 96 | 1012.3 |
| 20260510061926 | 71 | 184 | 0.0 | 0.0 | 0.00 | 0.00 | 0.00 | 96 | 1012.3 |
| 20260510061423 | 71 | 184 | 0.0 | 0.0 | 0.00 | 0.00 | 0.00 | 95 | 1012.3 |
| 20260510060919 | 71 | 184 | 0.0 | 0.0 | 0.00 | 0.00 | 0.00 | 95 | 1012.2 |
| 20260510060416 | 72 | 184 | 0.0 | 0.0 | 0.00 | 0.00 | 0.00 | 95 | 1012.4 |
| 20260510055912 | 72 | 184 | 0.0 | 0.0 | 0.00 | 0.00 | 0.00 | 94 | 1012.3 |
| 20260510055408 | 72 | 184 | 0.0 | 0.0 | 0.00 | 0.00 | 0.00 | 94 | 1012.3 |
| 20260510054906 | 72 | 184 | 0.0 | 0.0 | 0.00 | 0.00 | 0.00 | 94 | 1012.5 |
| 20260510054402 | 72 | 184 | 0.0 | 0.0 | 0.00 | 0.00 | 0.00 | 93 | 1012.3 |
| 20260510053857 | 73 | 185 | 0.0 | 0.0 | 0.00 | 0.00 | 0.00 | 93 | 1012.4 |
| 20260510053352 | 73 | 185 | 0.0 | 0.0 | 0.00 | 0.00 | 0.00 | 93 | 1012.4 |
| 20260510052849 | 73 | 185 | 0.0 | 0.0 | 0.00 | 0.00 | 0.00 | 92 | 1012.3 |
| 20260510052344 | 73 | 185 | 0.0 | 2.0 | 0.00 | 0.00 | 0.00 | 92 | 1012.4 |
| 20260510051841 | 73 | 182 | 1.0 | 2.0 | 0.00 | 0.00 | 0.00 | 92 | 1012.5 |
| 20260510051338 | 73 | 185 | 0.0 | 1.0 | 0.00 | 0.00 | 0.00 | 92 | 1012.5 |
| 20260510050835 | 73 | 232 | 0.0 | 0.0 | 0.00 | 0.00 | 0.00 | 91 | 1012.4 |
| 20260510050332 | 73 | 232 | 0.0 | 1.0 | 0.00 | 0.00 | 0.00 | 91 | 1012.4 |
| 20260510045829 | 73 | 197 | 0.0 | 1.0 | 0.00 | 0.00 | 0.00 | 90 | 1012.6 |
| 20260510045325 | 73 | 209 | 0.0 | 1.0 | 0.00 | 0.00 | 0.00 | 90 | 1012.4 |
| 20260510044823 | 73 | 153 | 1.0 | 2.0 | 0.00 | 0.00 | 0.00 | 89 | 1012.4 |
| 20260510044319 | 73 | 222 | 0.0 | 2.0 | 0.00 | 0.00 | 0.00 | 89 | 1012.4 |
| 20260510043816 | 73 | 215 | 0.0 | 2.0 | 0.00 | 0.00 | 0.00 | 88 | 1012.4 |
| 20260510043312 | 74 | 235 | 0.0 | 1.0 | 0.00 | 0.00 | 0.00 | 87 | 1012.5 |
| 20260510042810 | 74 | 246 | 0.0 | 2.0 | 0.00 | 0.00 | 0.00 | 86 | 1012.4 |
| 20260510042307 | 74 | 222 | 0.0 | 0.0 | 0.00 | 0.00 | 0.00 | 85 | 1012.5 |
| 20260510041802 | 74 | 193 | 0.0 | 1.0 | 0.00 | 0.00 | 0.00 | 85 | 1012.6 |
| 20260510041259 | 74 | 214 | 0.0 | 4.0 | 0.00 | 0.00 | 0.00 | 84 | 1012.3 |
| 20260510040757 | 74 | 207 | 2.0 | 3.0 | 0.00 | 0.00 | 0.00 | 84 | 1012.6 |
| 20260510040253 | 74 | 216 | 0.0 | 0.0 | 0.00 | 0.00 | 0.00 | 83 | 1012.5 |
| 20260510035749 | 74 | 228 | 0.0 | 1.0 | 0.00 | 0.00 | 0.00 | 82 | 1012.6 |
| 20260510035245 | 74 | 216 | 0.0 | 1.0 | 0.00 | 0.00 | 0.00 | 82 | 1012.5 |
| 20260510034740 | 75 | 212 | 1.0 | 1.0 | 0.00 | 0.00 | 0.00 | 81 | 1012.5 |
| 20260510034238 | 75 | 239 | 2.0 | 2.0 | 0.00 | 0.00 | 0.00 | 80 | 1012.4 |
| 20260510033734 | 75 | 220 | 1.0 | 8.0 | 0.00 | 0.00 | 0.00 | 80 | 1012.6 |
| 20260510033232 | 75 | 129 | 2.0 | 7.0 | 0.00 | 0.00 | 0.00 | 79 | 1012.5 |
| 20260510032728 | 76 | 35 | 2.0 | 4.0 | 0.00 | 0.00 | 0.00 | 79 | 1012.7 |
| 20260510032224 | 76 | 214 | 2.0 | 3.0 | 0.00 | 0.00 | 0.00 | 78 | 1012.6 |
| 20260510031719 | 76 | 241 | 2.0 | 9.0 | 0.00 | 0.00 | 0.00 | 79 | 1012.6 |
| 20260510031216 | 76 | 200 | 2.0 | 4.0 | 0.00 | 0.00 | 0.00 | 79 | 1012.7 |
| 20260510030715 | 77 | 302 | 2.0 | 6.0 | 0.00 | 0.00 | 0.00 | 80 | 1012.7 |
| 20260510030213 | 77 | 347 | 5.0 | 10.0 | 0.00 | 0.00 | 0.00 | 82 | 1012.8 |
| 20260510025710 | 77 | 115 | 3.0 | 9.0 | 0.00 | 0.00 | 0.00 | 81 | 1012.5 |
| 20260510025207 | 77 | 164 | 2.0 | 4.0 | 0.00 | 0.00 | 0.00 | 77 | 1012.5 |
| 20260510024704 | 76 | 175 | 2.0 | 3.0 | 0.00 | 0.00 | 0.00 | 77 | 1012.3 |
| 20260510024200 | 76 | 218 | 0.0 | 1.0 | 0.00 | 0.00 | 0.00 | 79 | 1011.8 |
| 20260510023656 | 75 | 221 | 0.0 | 1.0 | 0.00 | 0.00 | 0.00 | 79 | 1011.7 |
| 20260510023154 | 75 | 158 | 1.0 | 1.0 | 0.00 | 0.00 | 0.00 | 79 | 1011.4 |
| 20260510022649 | 75 | 204 | 0.0 | 0.0 | 0.00 | 0.00 | 0.00 | 79 | 1011.1 |
| 20260510022144 | 76 | 204 | 0.0 | 0.0 | 0.00 | 0.00 | 0.00 | 78 | 1011.0 |
| 20260510021635 | 75 | 205 | 0.0 | 0.0 | 0.00 | 0.00 | 0.00 | 78 | 1010.8 |
| 20260510021132 | 76 | 205 | 0.0 | 0.0 | 0.00 | 0.00 | 0.00 | 76 | 1010.7 |
| 20260510020631 | 76 | 205 | 0.0 | 0.0 | 0.00 | 0.00 | 0.00 | 76 | 1010.7 |
| 20260510020127 | 77 | 205 | 0.0 | 0.0 | 0.00 | 0.00 | 0.00 | 75 | 1010.5 |
| 20260510015623 | 77 | 205 | 0.0 | 0.0 | 0.00 | 0.00 | 0.00 | 74 | 1010.4 |
| 20260510015120 | 78 | 204 | 0.0 | 0.0 | 0.00 | 0.00 | 0.00 | 74 | 1010.1 |
| 20260510014615 | 78 | 205 | 1.0 | 1.0 | 0.00 | 0.00 | 0.00 | 73 | 1010.3 |
| 20260510014113 | 78 | 204 | 0.0 | 1.0 | 0.00 | 0.00 | 0.00 | 72 | 1010.1 |
| 20260510013608 | 79 | 213 | 0.0 | 1.0 | 0.00 | 0.00 | 0.00 | 71 | 1010.2 |
| 20260510013104 | 79 | 202 | 2.0 | 4.0 | 0.00 | 0.00 | 0.00 | 69 | 1010.2 |
| 20260510012603 | 80 | 231 | 4.0 | 4.0 | 0.00 | 0.00 | 0.00 | 67 | 1010.0 |
| 20260510012100 | 81 | 179 | 4.0 | 7.0 | 0.00 | 0.00 | 0.00 | 66 | 1010.0 |
| 20260510011559 | 82 | 237 | 2.0 | 2.0 | 0.00 | 0.00 | 0.00 | 67 | 1010.0 |
| 20260510011055 | 82 | 207 | 5.0 | 9.0 | 0.00 | 0.00 | 0.00 | 69 | 1010.0 |
| 20260510010552 | 83 | 162 | 3.0 | 4.0 | 0.00 | 0.00 | 0.00 | 74 | 1009.9 |
| 20260510010050 | 84 | 228 | 1.0 | 2.0 | 0.00 | 0.00 | 0.00 | 77 | 1009.8 |
| 20260510005550 | 84 | 227 | 0.0 | 1.0 | 0.00 | 0.00 | 0.00 | 76 | 1009.4 |
| 20260510005048 | 84 | 234 | 0.0 | 2.0 | 0.00 | 0.00 | 0.00 | 76 | 1009.4 |
| 20260510004545 | 85 | 162 | 2.0 | 3.0 | 0.00 | 0.00 | 0.00 | 77 | 1009.2 |
| 20260510004043 | 85 | 231 | 0.0 | 0.0 | 0.00 | 0.00 | 0.00 | 78 | 1009.3 |
| 20260510003539 | 85 | 231 | 0.0 | 0.0 | 0.00 | 0.00 | 0.00 | 79 | 1009.3 |
| 20260510003035 | 85 | 272 | 0.0 | 0.0 | 0.00 | 0.00 | 0.00 | 78 | 1009.3 |
| 20260510002530 | 85 | 204 | 0.0 | 0.0 | 0.00 | 0.00 | 0.00 | 79 | 1009.3 |
| 20260510002028 | 85 | 204 | 0.0 | 0.0 | 0.00 | 0.00 | 0.00 | 79 | 1009.3 |
| 20260510001525 | 85 | 204 | 0.0 | 0.0 | 0.00 | 0.00 | 0.00 | 80 | 1009.4 |
| 20260510001023 | 84 | 204 | 0.0 | 0.0 | 0.00 | 0.00 | 0.00 | 80 | 1009.1 |
| 20260510000518 | 84 | 204 | 0.0 | 0.0 | 0.00 | 0.00 | 0.00 | 82 | 1009.1 |
| 20260510000015 | 84 | 203 | 0.0 | 1.0 | 0.00 | 0.00 | 0.00 | 81 | 1009.0 |
| 20260509235512 | 84 | 196 | 0.0 | 1.0 | 0.00 | 0.00 | 0.00 | 81 | 1009.1 |
| 20260509235009 | 85 | 219 | 0.0 | 0.0 | 0.00 | 0.00 | 0.00 | 81 | 1009.0 |
| 20260509234505 | 85 | 220 | 0.0 | 0.0 | 0.00 | 0.00 | 0.00 | 81 | 1009.2 |
| 20260509234003 | 85 | 220 | 0.0 | 0.0 | 0.00 | 0.00 | 0.00 | 80 | 1009.2 |
| 20260509233500 | 85 | 220 | 0.0 | 0.0 | 0.00 | 0.00 | 0.00 | 78 | 1009.1 |
| 20260509232956 | 85 | 220 | 0.0 | 0.0 | 0.00 | 0.00 | 0.00 | 78 | 1009.2 |
| 20260509232454 | 85 | 220 | 0.0 | 0.0 | 0.00 | 0.00 | 0.00 | 77 | 1009.1 |
| 20260509231950 | 85 | 220 | 0.0 | 0.0 | 0.00 | 0.00 | 0.00 | 77 | 1009.0 |
| 20260509231446 | 85 | 205 | 0.0 | 0.0 | 0.00 | 0.00 | 0.00 | 76 | 1009.0 |
| 20260509230945 | 86 | 205 | 0.0 | 0.0 | 0.00 | 0.00 | 0.00 | 73 | 1009.1 |
| 20260509230441 | 86 | 236 | 0.0 | 0.0 | 0.00 | 0.00 | 0.00 | 73 | 1008.9 |
| 20260509225937 | 86 | 237 | 0.0 | 0.0 | 0.00 | 0.00 | 0.00 | 72 | 1008.8 |
| 20260509225434 | 86 | 230 | 0.0 | 1.0 | 0.00 | 0.00 | 0.00 | 71 | 1008.8 |
| 20260509224930 | 86 | 229 | 0.0 | 0.0 | 0.00 | 0.00 | 0.00 | 71 | 1008.8 |
| 20260509224425 | 87 | 229 | 1.0 | 1.0 | 0.00 | 0.00 | 0.00 | 71 | 1008.8 |
| 20260509223923 | 87 | 212 | 0.0 | 1.0 | 0.00 | 0.00 | 0.00 | 70 | 1008.9 |
| 20260509223419 | 87 | 211 | 0.0 | 1.0 | 0.00 | 0.00 | 0.00 | 69 | 1008.8 |
| 20260509222916 | 87 | 201 | 0.0 | 1.0 | 0.00 | 0.00 | 0.00 | 67 | 1008.8 |
| 20260509222407 | 88 | 218 | 0.0 | 1.0 | 0.00 | 0.00 | 0.00 | 67 | 1008.8 |
| 20260509221902 | 88 | 231 | 0.0 | 2.0 | 0.00 | 0.00 | 0.00 | 68 | 1008.7 |
| 20260509221359 | 89 | 346 | 3.0 | 3.0 | 0.00 | 0.00 | 0.00 | 66 | 1008.7 |
| 20260509220855 | 89 | 186 | 1.0 | 3.0 | 0.00 | 0.00 | 0.00 | 67 | 1008.8 |
| 20260509220351 | 89 | 262 | 0.0 | 3.0 | 0.00 | 0.00 | 0.00 | 67 | 1008.7 |
| 20260509215847 | 89 | 247 | 1.0 | 2.0 | 0.00 | 0.00 | 0.00 | 65 | 1008.6 |
| 20260509215343 | 89 | 222 | 0.0 | 1.0 | 0.00 | 0.00 | 0.00 | 65 | 1008.7 |
| 20260509214840 | 87 | 242 | 0.0 | 0.0 | 0.00 | 0.00 | 0.00 | 66 | 1008.8 |
| 20260509214337 | 88 | 255 | 1.0 | 1.0 | 0.00 | 0.00 | 0.00 | 67 | 1008.7 |
| 20260509213834 | 88 | 223 | 0.0 | 0.0 | 0.00 | 0.00 | 0.00 | 67 | 1008.7 |
| 20260509213329 | 88 | 223 | 0.0 | 1.0 | 0.00 | 0.00 | 0.00 | 65 | 1008.6 |
| 20260509212827 | 88 | 249 | 1.0 | 4.0 | 0.00 | 0.00 | 0.00 | 67 | 1008.7 |
| 20260509212325 | 88 | 238 | 1.0 | 2.0 | 0.00 | 0.00 | 0.00 | 66 | 1008.8 |
| 20260509211820 | 89 | 227 | 1.0 | 3.0 | 0.00 | 0.00 | 0.00 | 64 | 1008.8 |
| 20260509211317 | 89 | 228 | 2.0 | 3.0 | 0.00 | 0.00 | 0.00 | 64 | 1008.8 |
| 20260509210813 | 88 | 222 | 0.0 | 0.0 | 0.00 | 0.00 | 0.00 | 65 | 1008.8 |
| 20260509210311 | 88 | 231 | 0.0 | 1.0 | 0.00 | 0.00 | 0.00 | 65 | 1009.0 |
| 20260509205810 | 91 | 196 | 2.0 | 2.0 | 0.00 | 0.00 | 0.00 | 62 | 1009.0 |
| 20260509205307 | 91 | 161 | 3.0 | 4.0 | 0.00 | 0.00 | 0.00 | 62 | 1009.0 |
| 20260509204802 | 90 | 213 | 4.0 | 4.0 | 0.00 | 0.00 | 0.00 | 63 | 1009.1 |
| 20260509204258 | 90 | 149 | 1.0 | 4.0 | 0.00 | 0.00 | 0.00 | 65 | 1009.2 |
| 20260509203754 | 89 | 179 | 1.0 | 2.0 | 0.00 | 0.00 | 0.00 | 66 | 1009.3 |
| 20260509203252 | 89 | 277 | 1.0 | 4.0 | 0.00 | 0.00 | 0.00 | 65 | 1009.3 |
| 20260509202748 | 88 | 215 | 0.0 | 0.0 | 0.00 | 0.00 | 0.00 | 65 | 1009.4 |
| 20260509202245 | 89 | 223 | 2.0 | 2.0 | 0.00 | 0.00 | 0.00 | 65 | 1009.6 |
| 20260509201744 | 89 | 196 | 2.0 | 3.0 | 0.00 | 0.00 | 0.00 | 64 | 1009.5 |
| 20260509201241 | 88 | 192 | 3.0 | 7.0 | 0.00 | 0.00 | 0.00 | 68 | 1009.5 |
| 20260509200738 | 90 | 182 | 2.0 | 4.0 | 0.00 | 0.00 | 0.00 | 66 | 1009.4 |
| 20260509200238 | 90 | 227 | 1.0 | 6.0 | 0.00 | 0.00 | 0.00 | 67 | 1009.8 |
| 20260509195734 | 89 | 219 | 2.0 | 6.0 | 0.00 | 0.00 | 0.00 | 66 | 1009.7 |
| 20260509195229 | 90 | 231 | 1.0 | 3.0 | 0.00 | 0.00 | 0.00 | 66 | 1009.7 |
| 20260509194724 | 89 | 240 | 2.0 | 2.0 | 0.00 | 0.00 | 0.00 | 63 | 1009.7 |
| 20260509194221 | 89 | 230 | 1.0 | 2.0 | 0.00 | 0.00 | 0.00 | 64 | 1009.8 |
| 20260509193718 | 88 | 219 | 0.0 | 3.0 | 0.00 | 0.00 | 0.00 | 69 | 1010.0 |
| 20260509193217 | 89 | 229 | 1.0 | 2.0 | 0.00 | 0.00 | 0.00 | 66 | 1010.1 |
| 20260509192714 | 88 | 213 | 0.0 | 4.0 | 0.00 | 0.00 | 0.00 | 70 | 1009.9 |
| 20260509192209 | 88 | 184 | 1.0 | 3.0 | 0.00 | 0.00 | 0.00 | 67 | 1009.7 |
| 20260509191705 | 87 | 247 | 1.0 | 2.0 | 0.00 | 0.00 | 0.00 | 69 | 1010.0 |
| 20260509191201 | 87 | 256 | 1.0 | 3.0 | 0.00 | 0.00 | 0.00 | 70 | 1010.2 |
| 20260509190657 | 88 | 226 | 2.0 | 3.0 | 0.00 | 0.00 | 0.00 | 68 | 1010.2 |
| 20260509190155 | 87 | 179 | 2.0 | 3.0 | 0.00 | 0.00 | 0.00 | 69 | 1010.2 |
| 20260509185653 | 87 | 232 | 1.0 | 2.0 | 0.00 | 0.00 | 0.00 | 70 | 1010.5 |
| 20260509185148 | 89 | 172 | 3.0 | 3.0 | 0.00 | 0.00 | 0.00 | 69 | 1010.4 |
| 20260509184646 | 89 | 220 | 1.0 | 6.0 | 0.00 | 0.00 | 0.00 | 68 | 1010.5 |
| 20260509184143 | 88 | 225 | 1.0 | 3.0 | 0.00 | 0.00 | 0.00 | 70 | 1010.5 |
| 20260509183639 | 88 | 229 | 0.0 | 1.0 | 0.00 | 0.00 | 0.00 | 68 | 1010.6 |
| 20260509183134 | 87 | 223 | 1.0 | 3.0 | 0.00 | 0.00 | 0.00 | 69 | 1010.4 |
| 20260509182631 | 86 | 224 | 0.0 | 2.0 | 0.00 | 0.00 | 0.00 | 73 | 1010.7 |
| 20260509182128 | 84 | 228 | 2.0 | 3.0 | 0.00 | 0.00 | 0.00 | 73 | 1010.9 |